63.7°F
Current conditions from King Hill
Updated every 5 minutes
 
  Wednesday July 30, 2014

Station Historical Data
Daily Summary for November 19, 2011 Units:  English    Metric   Both
« Previous Day
Next Day »
Daily Weekly Monthly Yearly Custom
  High: Low: Average:
Temperature: 48.5 °F 34.8 °F 41.6 °F
Dew Point: 24.7 °F 19.4 °F 21.4 °F
Humidity: 58% 36% 45%
Wind Speed: 15.0mph 4.0mph 8.8mph
Wind Gust: 30.0mph - -
Wind- - SSW
Pressure: 30.18 in 30.00 in -
Precipitation: 0.00 in    
Historical Graphs
 
 
Tabular Data for November 19, 2011
Time Temperature Dew Point Pressure Wind Wind Speed Wind Gust Humidity Daily Rainfall
00:04 34.8 °F 21.1 °F 30.18 in SSW 9.0 mph 23.0 mph 57% 0.00 in
00:09 34.8 °F 21.1 °F 30.18 in SSW 11.0 mph 23.0 mph 57% 0.00 in
00:14 34.9 °F 21.2 °F 30.18 in SSW 10.0 mph 21.0 mph 57% 0.00 in
00:19 35.0 °F 21.7 °F 30.18 in SSW 7.0 mph 18.0 mph 58% 0.00 in
00:24 35.1 °F 21.8 °F 30.18 in SSW 6.0 mph 24.0 mph 58% 0.00 in
00:29 35.1 °F 21.8 °F 30.18 in SSW 9.0 mph 24.0 mph 58% 0.00 in
00:34 35.2 °F 21.9 °F 30.17 in SSW 6.0 mph 19.0 mph 58% 0.00 in
00:39 35.3 °F 22.0 °F 30.17 in SSW 11.0 mph 22.0 mph 58% 0.00 in
00:44 35.3 °F 22.0 °F 30.17 in SSW 8.0 mph 22.0 mph 58% 0.00 in
00:49 35.5 °F 22.2 °F 30.17 in SSW 11.0 mph 19.0 mph 58% 0.00 in
00:54 35.5 °F 22.2 °F 30.17 in SSW 8.0 mph 19.0 mph 58% 0.00 in
00:59 35.6 °F 21.9 °F 30.17 in SSW 12.0 mph 20.0 mph 57% 0.00 in
01:04 35.7 °F 22.0 °F 30.16 in SSW 11.0 mph 23.0 mph 57% 0.00 in
01:09 35.8 °F 21.6 °F 30.16 in SSW 8.0 mph 23.0 mph 56% 0.00 in
01:14 35.9 °F 21.7 °F 30.16 in SSW 11.0 mph 23.0 mph 56% 0.00 in
01:19 35.9 °F 21.3 °F 30.16 in SSW 10.0 mph 22.0 mph 55% 0.00 in
01:24 35.9 °F 21.3 °F 30.16 in SSW 11.0 mph 27.0 mph 55% 0.00 in
01:29 36.0 °F 21.4 °F 30.16 in SSW 10.0 mph 27.0 mph 55% 0.00 in
01:34 36.0 °F 21.4 °F 30.16 in SSW 11.0 mph 22.0 mph 55% 0.00 in
01:39 36.0 °F 21.0 °F 30.16 in SSW 11.0 mph 22.0 mph 54% 0.00 in
01:44 36.0 °F 21.4 °F 30.16 in SSW 11.0 mph 24.0 mph 55% 0.00 in
01:49 36.0 °F 21.4 °F 30.16 in SSW 8.0 mph 24.0 mph 55% 0.00 in
01:54 35.9 °F 21.3 °F 30.16 in SSW 9.0 mph 23.0 mph 55% 0.00 in
01:59 35.9 °F 21.3 °F 30.16 in South 11.0 mph 23.0 mph 55% 0.00 in
02:04 35.9 °F 21.3 °F 30.16 in SSW 9.0 mph 27.0 mph 55% 0.00 in
02:09 35.9 °F 21.3 °F 30.16 in SSW 11.0 mph 27.0 mph 55% 0.00 in
02:14 35.9 °F 20.9 °F 30.16 in SSW 10.0 mph 22.0 mph 54% 0.00 in
02:19 36.0 °F 21.0 °F 30.16 in SSW 13.0 mph 25.0 mph 54% 0.00 in
02:24 36.0 °F 21.0 °F 30.16 in SSW 12.0 mph 25.0 mph 54% 0.00 in
02:29 36.0 °F 21.0 °F 30.15 in SSW 11.0 mph 26.0 mph 54% 0.00 in
02:34 36.1 °F 20.6 °F 30.15 in SSW 12.0 mph 26.0 mph 53% 0.00 in
02:39 36.1 °F 20.6 °F 30.15 in SSW 11.0 mph 22.0 mph 53% 0.00 in
02:44 36.2 °F 20.7 °F 30.14 in SSW 11.0 mph 29.0 mph 53% 0.00 in
02:54 36.4 °F 20.9 °F 30.15 in SSW 11.0 mph 30.0 mph 53% 0.00 in
02:59 36.4 °F 20.4 °F 30.15 in SSW 9.0 mph 23.0 mph 52% 0.00 in
03:04 36.5 °F 20.5 °F 30.15 in SSW 14.0 mph 23.0 mph 52% 0.00 in
03:09 36.6 °F 20.2 °F 30.15 in SSW 13.0 mph 22.0 mph 51% 0.00 in
03:14 36.7 °F 20.3 °F 30.15 in SSW 11.0 mph 22.0 mph 51% 0.00 in
03:24 36.8 °F 19.9 °F 30.15 in SSW 10.0 mph 20.0 mph 50% 0.00 in
03:29 36.8 °F 19.4 °F 30.15 in SSW 10.0 mph 24.0 mph 49% 0.00 in
03:34 36.7 °F 19.8 °F 30.16 in SSW 9.0 mph 24.0 mph 50% 0.00 in
03:39 36.6 °F 19.7 °F 30.15 in SSW 14.0 mph 24.0 mph 50% 0.00 in
03:44 36.6 °F 19.7 °F 30.15 in SSW 10.0 mph 24.0 mph 50% 0.00 in
03:49 36.4 °F 20.0 °F 30.16 in SW 11.0 mph 23.0 mph 51% 0.00 in
03:54 36.3 °F 20.4 °F 30.16 in SW 10.0 mph 23.0 mph 52% 0.00 in
03:59 36.3 °F 20.4 °F 30.16 in SSW 10.0 mph 25.0 mph 52% 0.00 in
04:04 36.2 °F 19.8 °F 30.16 in SW 13.0 mph 25.0 mph 51% 0.00 in
04:09 36.2 °F 20.3 °F 30.16 in SSW 10.0 mph 24.0 mph 52% 0.00 in
04:14 36.1 °F 20.2 °F 30.16 in SW 14.0 mph 19.0 mph 52% 0.00 in
04:19 36.1 °F 20.2 °F 30.16 in SSW 10.0 mph 21.0 mph 52% 0.00 in
04:24 36.0 °F 20.1 °F 30.16 in SSW 11.0 mph 21.0 mph 52% 0.00 in
04:29 36.0 °F 20.5 °F 30.16 in SSW 6.0 mph 20.0 mph 53% 0.00 in
04:34 35.9 °F 20.4 °F 30.16 in SSW 9.0 mph 19.0 mph 53% 0.00 in
04:39 36.0 °F 20.5 °F 30.16 in SW 6.0 mph 19.0 mph 53% 0.00 in
04:44 35.9 °F 20.0 °F 30.16 in SSW 9.0 mph 21.0 mph 52% 0.00 in
04:49 35.8 °F 19.9 °F 30.16 in SSW 7.0 mph 21.0 mph 52% 0.00 in
04:54 35.7 °F 19.8 °F 30.16 in SSW 6.0 mph 18.0 mph 52% 0.00 in
04:59 35.8 °F 19.9 °F 30.17 in SSW 9.0 mph 18.0 mph 52% 0.00 in
05:04 35.8 °F 19.9 °F 30.18 in SW 9.0 mph 16.0 mph 52% 0.00 in
05:09 35.7 °F 20.2 °F 30.18 in SSW 7.0 mph 17.0 mph 53% 0.00 in
05:14 35.7 °F 20.2 °F 30.18 in SSW 9.0 mph 21.0 mph 53% 0.00 in
05:19 35.6 °F 20.2 °F 30.18 in SSW 7.0 mph 21.0 mph 53% 0.00 in
05:24 35.6 °F 20.2 °F 30.17 in SSW 10.0 mph 18.0 mph 53% 0.00 in
05:29 35.5 °F 20.1 °F 30.17 in SSW 6.0 mph 18.0 mph 53% 0.00 in
05:34 35.6 °F 20.2 °F 30.17 in SSW 11.0 mph 18.0 mph 53% 0.00 in
05:39 35.7 °F 20.2 °F 30.17 in SSW 9.0 mph 19.0 mph 53% 0.00 in
05:44 35.7 °F 20.2 °F 30.16 in SSW 10.0 mph 20.0 mph 53% 0.00 in
05:49 35.7 °F 20.2 °F 30.16 in SSW 8.0 mph 20.0 mph 53% 0.00 in
05:54 35.8 °F 19.9 °F 30.16 in SW 10.0 mph 18.0 mph 52% 0.00 in
05:59 35.9 °F 20.0 °F 30.16 in SW 9.0 mph 20.0 mph 52% 0.00 in
06:04 35.9 °F 20.0 °F 30.17 in SSW 7.0 mph 20.0 mph 52% 0.00 in
06:09 35.9 °F 20.0 °F 30.17 in SSW 8.0 mph 23.0 mph 52% 0.00 in
06:14 35.9 °F 20.0 °F 30.17 in SSW 10.0 mph 23.0 mph 52% 0.00 in
06:19 36.0 °F 20.1 °F 30.16 in SSW 8.0 mph 22.0 mph 52% 0.00 in
06:24 36.0 °F 20.1 °F 30.16 in SSW 9.0 mph 22.0 mph 52% 0.00 in
06:29 36.0 °F 20.1 °F 30.16 in SSW 11.0 mph 22.0 mph 52% 0.00 in
06:34 36.0 °F 19.6 °F 30.15 in SSW 8.0 mph 22.0 mph 51% 0.00 in
06:39 36.0 °F 19.6 °F 30.16 in SSW 11.0 mph 22.0 mph 51% 0.00 in
06:44 36.0 °F 19.6 °F 30.17 in SSW 8.0 mph 18.0 mph 51% 0.00 in
06:49 36.1 °F 19.7 °F 30.17 in SW 7.0 mph 22.0 mph 51% 0.00 in
06:54 36.1 °F 19.7 °F 30.17 in SW 8.0 mph 22.0 mph 51% 0.00 in
06:59 36.2 °F 19.8 °F 30.17 in SSW 9.0 mph 21.0 mph 51% 0.00 in
07:04 36.2 °F 19.8 °F 30.17 in SW 8.0 mph 21.0 mph 51% 0.00 in
07:09 36.2 °F 19.8 °F 30.17 in SSW 9.0 mph 18.0 mph 51% 0.00 in
07:14 36.2 °F 19.8 °F 30.17 in SSW 6.0 mph 17.0 mph 51% 0.00 in
07:19 36.2 °F 19.8 °F 30.17 in SSW 8.0 mph 17.0 mph 51% 0.00 in
07:24 36.2 °F 19.8 °F 30.18 in SSW 8.0 mph 23.0 mph 51% 0.00 in
07:29 36.3 °F 19.9 °F 30.18 in SSW 8.0 mph 23.0 mph 51% 0.00 in
07:34 36.3 °F 19.9 °F 30.18 in SSW 7.0 mph 18.0 mph 51% 0.00 in
07:44 36.3 °F 19.4 °F 30.17 in SSW 8.0 mph 18.0 mph 50% 0.00 in
07:49 36.3 °F 19.4 °F 30.17 in SSW 8.0 mph 20.0 mph 50% 0.00 in
07:54 36.3 °F 19.4 °F 30.18 in SSW 8.0 mph 20.0 mph 50% 0.00 in
07:59 36.3 °F 19.4 °F 30.18 in SSW 6.0 mph 17.0 mph 50% 0.00 in
08:04 36.5 °F 19.6 °F 30.18 in SSW 10.0 mph 19.0 mph 50% 0.00 in
08:09 36.7 °F 19.8 °F 30.18 in SW 6.0 mph 19.0 mph 50% 0.00 in
08:14 36.8 °F 19.4 °F 30.18 in SSW 6.0 mph 16.0 mph 49% 0.00 in
08:19 36.8 °F 19.4 °F 30.18 in SSW 10.0 mph 17.0 mph 49% 0.00 in
08:24 36.9 °F 19.5 °F 30.18 in SSW 7.0 mph 18.0 mph 49% 0.00 in
08:34 37.1 °F 19.7 °F 30.18 in SSW 8.0 mph 18.0 mph 49% 0.00 in
08:39 37.2 °F 19.8 °F 30.18 in SSW 8.0 mph 15.0 mph 49% 0.00 in
08:44 37.3 °F 19.9 °F 30.18 in SSW 7.0 mph 19.0 mph 49% 0.00 in
08:49 37.3 °F 19.9 °F 30.18 in SSW 10.0 mph 21.0 mph 49% 0.00 in
08:54 37.3 °F 19.4 °F 30.18 in SW 10.0 mph 21.0 mph 48% 0.00 in
08:59 37.4 °F 20.0 °F 30.18 in SSW 7.0 mph 14.0 mph 49% 0.00 in
09:04 37.6 °F 19.7 °F 30.17 in SSW 9.0 mph 18.0 mph 48% 0.00 in
09:09 37.8 °F 19.9 °F 30.18 in SSW 9.0 mph 18.0 mph 48% 0.00 in
09:14 38.0 °F 20.0 °F 30.18 in SSW 5.0 mph 16.0 mph 48% 0.00 in
09:19 38.2 °F 20.2 °F 30.18 in SW 5.0 mph 16.0 mph 48% 0.00 in
09:24 38.6 °F 20.6 °F 30.18 in SW 7.0 mph 16.0 mph 48% 0.00 in
09:29 39.2 °F 20.2 °F 30.18 in SW 11.0 mph 18.0 mph 46% 0.00 in
09:34 39.7 °F 20.6 °F 30.18 in SSW 7.0 mph 18.0 mph 46% 0.00 in
09:39 39.9 °F 20.3 °F 30.18 in SW 9.0 mph 20.0 mph 45% 0.00 in
09:49 40.8 °F 20.6 °F 30.17 in SSW 11.0 mph 24.0 mph 44% 0.00 in
09:54 40.6 °F 20.4 °F 30.17 in SSW 9.0 mph 24.0 mph 44% 0.00 in
09:59 40.1 °F 19.9 °F 30.17 in SSW 8.0 mph 19.0 mph 44% 0.00 in
10:04 40.4 °F 20.7 °F 30.16 in SSW 7.0 mph 20.0 mph 45% 0.00 in
10:09 40.9 °F 20.7 °F 30.16 in SSW 7.0 mph 20.0 mph 44% 0.00 in
10:14 41.0 °F 20.2 °F 30.15 in SSW 11.0 mph 19.0 mph 43% 0.00 in
10:19 40.9 °F 20.1 °F 30.16 in SW 10.0 mph 20.0 mph 43% 0.00 in
10:24 40.7 °F 20.5 °F 30.14 in SSW 9.0 mph 20.0 mph 44% 0.00 in
10:29 40.9 °F 20.1 °F 30.15 in SSW 11.0 mph 20.0 mph 43% 0.00 in
10:34 41.8 °F 20.4 °F 30.14 in SSW 11.0 mph 19.0 mph 42% 0.00 in
10:39 42.4 °F 20.9 °F 30.14 in SSW 7.0 mph 19.0 mph 42% 0.00 in
10:49 42.6 °F 21.1 °F 30.14 in SW 5.0 mph 21.0 mph 42% 0.00 in
10:54 43.6 °F 20.9 °F 30.14 in SSW 7.0 mph 21.0 mph 40% 0.00 in
10:59 43.7 °F 21.0 °F 30.13 in SSW 9.0 mph 18.0 mph 40% 0.00 in
11:04 43.5 °F 20.2 °F 30.13 in SW 13.0 mph 18.0 mph 39% 0.00 in
11:09 43.2 °F 21.1 °F 30.13 in SSW 7.0 mph 19.0 mph 41% 0.00 in
11:14 43.4 °F 20.1 °F 30.13 in SSW 10.0 mph 19.0 mph 39% 0.00 in
11:19 44.1 °F 20.7 °F 30.13 in SW 10.0 mph 18.0 mph 39% 0.00 in
11:24 44.4 °F 21.0 °F 30.13 in SSW 10.0 mph 20.0 mph 39% 0.00 in
11:29 44.7 °F 20.6 °F 30.13 in SSW 12.0 mph 22.0 mph 38% 0.00 in
11:34 44.3 °F 20.3 °F 30.12 in SSW 10.0 mph 22.0 mph 38% 0.00 in
11:39 44.4 °F 20.4 °F 30.12 in SSW 14.0 mph 24.0 mph 38% 0.00 in
11:44 44.6 °F 20.6 °F 30.12 in SSW 10.0 mph 24.0 mph 38% 0.00 in
11:49 44.5 °F 20.5 °F 30.12 in SW 11.0 mph 21.0 mph 38% 0.00 in
11:54 45.0 °F 21.5 °F 30.12 in SW 8.0 mph 21.0 mph 39% 0.00 in
11:59 45.3 °F 21.2 °F 30.12 in SW 12.0 mph 22.0 mph 38% 0.00 in
12:04 45.3 °F 20.6 °F 30.12 in SW 10.0 mph 22.0 mph 37% 0.00 in
12:09 44.4 °F 19.7 °F 30.12 in SSW 11.0 mph 20.0 mph 37% 0.00 in
12:14 44.5 °F 21.7 °F 30.12 in SSW 9.0 mph 20.0 mph 40% 0.00 in
12:19 45.3 °F 21.2 °F 30.12 in SSW 8.0 mph 18.0 mph 38% 0.00 in
12:24 46.5 °F 21.6 °F 30.12 in SSW 8.0 mph 16.0 mph 37% 0.00 in
12:29 45.5 °F 20.1 °F 30.12 in SW 11.0 mph 19.0 mph 36% 0.00 in
12:34 44.7 °F 20.6 °F 30.12 in SSW 7.0 mph 19.0 mph 38% 0.00 in
12:39 45.9 °F 21.1 °F 30.12 in SSW 11.0 mph 16.0 mph 37% 0.00 in
12:44 45.8 °F 20.4 °F 30.12 in SW 10.0 mph 22.0 mph 36% 0.00 in
12:49 45.9 °F 20.4 °F 30.12 in SW 10.0 mph 22.0 mph 36% 0.00 in
12:54 46.1 °F 20.6 °F 30.11 in SW 11.0 mph 18.0 mph 36% 0.00 in
12:59 46.7 °F 21.8 °F 30.11 in SW 7.0 mph 17.0 mph 37% 0.00 in
13:04 47.3 °F 21.7 °F 30.11 in SSW 9.0 mph 15.0 mph 36% 0.00 in
13:09 46.5 °F 21.0 °F 30.11 in SSW 11.0 mph 19.0 mph 36% 0.00 in
13:14 46.2 °F 21.4 °F 30.11 in SSW 7.0 mph 19.0 mph 37% 0.00 in
13:19 46.0 °F 21.2 °F 30.10 in SSW 7.0 mph 16.0 mph 37% 0.00 in
13:24 46.4 °F 21.5 °F 30.10 in SSW 8.0 mph 16.0 mph 37% 0.00 in
13:29 45.6 °F 21.5 °F 30.10 in SSW 7.0 mph 13.0 mph 38% 0.00 in
13:34 45.0 °F 21.5 °F 30.10 in SSW 6.0 mph 12.0 mph 39% 0.00 in
13:39 45.6 °F 22.1 °F 30.09 in SW 4.0 mph 12.0 mph 39% 0.00 in
13:44 46.4 °F 21.5 °F 30.09 in SSW 9.0 mph 14.0 mph 37% 0.00 in
13:49 46.5 °F 22.3 °F 30.09 in SSW 5.0 mph 14.0 mph 38% 0.00 in
13:54 46.4 °F 21.5 °F 30.09 in SSW 7.0 mph 14.0 mph 37% 0.00 in
13:59 46.7 °F 21.8 °F 30.09 in SSW 9.0 mph 17.0 mph 37% 0.00 in
14:04 46.9 °F 22.0 °F 30.08 in SW 5.0 mph 17.0 mph 37% 0.00 in
14:09 46.4 °F 21.5 °F 30.08 in SSW 7.0 mph 16.0 mph 37% 0.00 in
14:14 47.2 °F 22.9 °F 30.08 in SSW 6.0 mph 12.0 mph 38% 0.00 in
14:19 47.9 °F 22.9 °F 30.08 in SW 5.0 mph 13.0 mph 37% 0.00 in
14:24 48.2 °F 22.5 °F 30.08 in SSW 9.0 mph 17.0 mph 36% 0.00 in
14:29 48.1 °F 22.4 °F 30.08 in SSW 8.0 mph 17.0 mph 36% 0.00 in
14:34 48.5 °F 22.8 °F 30.08 in SSW 6.0 mph 15.0 mph 36% 0.00 in
14:39 48.3 °F 22.6 °F 30.08 in SSW 7.0 mph 16.0 mph 36% 0.00 in
14:44 48.3 °F 22.6 °F 30.08 in SSW 6.0 mph 16.0 mph 36% 0.00 in
14:49 47.9 °F 22.2 °F 30.07 in SSW 7.0 mph 16.0 mph 36% 0.00 in
14:54 47.7 °F 22.0 °F 30.07 in SSW 7.0 mph 16.0 mph 36% 0.00 in
14:59 47.4 °F 21.8 °F 30.07 in SSW 8.0 mph 16.0 mph 36% 0.00 in
15:04 47.0 °F 21.4 °F 30.07 in SSW 7.0 mph 15.0 mph 36% 0.00 in
15:09 46.6 °F 21.7 °F 30.07 in SSW 7.0 mph 16.0 mph 37% 0.00 in
15:14 46.6 °F 21.7 °F 30.07 in SSW 7.0 mph 16.0 mph 37% 0.00 in
15:19 46.7 °F 21.8 °F 30.07 in SSW 6.0 mph 15.0 mph 37% 0.00 in
15:24 46.8 °F 21.9 °F 30.07 in SSW 4.0 mph 15.0 mph 37% 0.00 in
15:34 46.8 °F 21.9 °F 30.07 in SW 7.0 mph 12.0 mph 37% 0.00 in
15:39 46.7 °F 21.2 °F 30.07 in SSW 7.0 mph 16.0 mph 36% 0.00 in
15:44 46.5 °F 21.6 °F 30.07 in South 5.0 mph 16.0 mph 37% 0.00 in
15:49 46.2 °F 21.4 °F 30.06 in SSW 7.0 mph 14.0 mph 37% 0.00 in
15:54 46.1 °F 21.3 °F 30.06 in South 7.0 mph 16.0 mph 37% 0.00 in
15:59 45.9 °F 21.1 °F 30.06 in South 6.0 mph 16.0 mph 37% 0.00 in
16:04 45.8 °F 21.0 °F 30.06 in SSW 7.0 mph 15.0 mph 37% 0.00 in
16:09 45.7 °F 21.5 °F 30.06 in SSW 8.0 mph 16.0 mph 38% 0.00 in
16:14 45.7 °F 21.5 °F 30.05 in SSW 7.0 mph 17.0 mph 38% 0.00 in
16:19 45.6 °F 21.5 °F 30.05 in SSW 7.0 mph 18.0 mph 38% 0.00 in
16:24 45.5 °F 21.4 °F 30.05 in SSW 7.0 mph 18.0 mph 38% 0.00 in
16:29 45.3 °F 21.2 °F 30.05 in SSW 8.0 mph 16.0 mph 38% 0.00 in
16:34 45.3 °F 21.2 °F 30.05 in SSW 6.0 mph 16.0 mph 38% 0.00 in
16:39 45.5 °F 21.4 °F 30.05 in SSW 7.0 mph 14.0 mph 38% 0.00 in
16:44 45.6 °F 21.5 °F 30.06 in SW 7.0 mph 17.0 mph 38% 0.00 in
16:49 45.5 °F 21.4 °F 30.05 in SSW 5.0 mph 17.0 mph 38% 0.00 in
16:54 45.4 °F 21.9 °F 30.06 in SSW 6.0 mph 14.0 mph 39% 0.00 in
16:59 45.5 °F 21.4 °F 30.05 in SSW 9.0 mph 17.0 mph 38% 0.00 in
17:04 45.7 °F 21.5 °F 30.06 in SSW 9.0 mph 20.0 mph 38% 0.00 in
17:09 45.7 °F 21.5 °F 30.06 in SSW 10.0 mph 20.0 mph 38% 0.00 in
17:14 45.8 °F 22.2 °F 30.06 in SSW 8.0 mph 18.0 mph 39% 0.00 in
17:19 45.8 °F 22.2 °F 30.06 in SSW 5.0 mph 17.0 mph 39% 0.00 in
17:24 46.0 °F 22.4 °F 30.06 in SSW 11.0 mph 21.0 mph 39% 0.00 in
17:34 46.1 °F 22.5 °F 30.06 in SSW 10.0 mph 22.0 mph 39% 0.00 in
17:39 46.3 °F 22.7 °F 30.07 in SSW 6.0 mph 22.0 mph 39% 0.00 in
17:44 46.2 °F 22.6 °F 30.06 in SSW 10.0 mph 20.0 mph 39% 0.00 in
17:49 46.4 °F 22.8 °F 30.07 in SSW 9.0 mph 22.0 mph 39% 0.00 in
17:54 46.4 °F 22.8 °F 30.07 in SSW 9.0 mph 22.0 mph 39% 0.00 in
17:59 46.5 °F 22.9 °F 30.07 in SSW 10.0 mph 20.0 mph 39% 0.00 in
18:04 46.5 °F 22.9 °F 30.06 in SSW 10.0 mph 20.0 mph 39% 0.00 in
18:09 46.6 °F 23.0 °F 30.06 in SSW 12.0 mph 23.0 mph 39% 0.00 in
18:14 46.5 °F 22.9 °F 30.06 in SSW 4.0 mph 23.0 mph 39% 0.00 in
18:19 46.4 °F 22.8 °F 30.06 in SSW 6.0 mph 20.0 mph 39% 0.00 in
18:24 46.3 °F 22.7 °F 30.06 in SSW 8.0 mph 20.0 mph 39% 0.00 in
18:29 46.3 °F 22.7 °F 30.06 in SSW 7.0 mph 21.0 mph 39% 0.00 in
18:34 46.2 °F 23.2 °F 30.06 in SSW 8.0 mph 21.0 mph 40% 0.00 in
18:39 46.2 °F 23.2 °F 30.06 in SSW 7.0 mph 17.0 mph 40% 0.00 in
18:44 46.3 °F 23.3 °F 30.06 in SSW 7.0 mph 23.0 mph 40% 0.00 in
18:49 46.4 °F 23.4 °F 30.06 in SSW 10.0 mph 23.0 mph 40% 0.00 in
18:54 46.3 °F 23.3 °F 30.06 in SSW 7.0 mph 21.0 mph 40% 0.00 in
18:59 46.3 °F 23.9 °F 30.06 in SSW 10.0 mph 21.0 mph 41% 0.00 in
19:04 46.1 °F 23.7 °F 30.06 in SSW 7.0 mph 21.0 mph 41% 0.00 in
19:09 46.1 °F 23.7 °F 30.06 in SSW 10.0 mph 22.0 mph 41% 0.00 in
19:14 46.0 °F 23.6 °F 30.06 in SSW 9.0 mph 22.0 mph 41% 0.00 in
19:19 45.9 °F 23.5 °F 30.05 in SSW 9.0 mph 18.0 mph 41% 0.00 in
19:24 45.8 °F 23.4 °F 30.05 in SSW 10.0 mph 20.0 mph 41% 0.00 in
19:29 45.8 °F 23.4 °F 30.05 in SSW 9.0 mph 20.0 mph 41% 0.00 in
19:34 45.6 °F 23.3 °F 30.05 in SSW 9.0 mph 20.0 mph 41% 0.00 in
19:39 45.5 °F 23.2 °F 30.04 in SSW 12.0 mph 22.0 mph 41% 0.00 in
19:44 45.4 °F 23.1 °F 30.05 in SSW 9.0 mph 22.0 mph 41% 0.00 in
19:49 45.3 °F 23.6 °F 30.05 in SSW 8.0 mph 18.0 mph 42% 0.00 in
19:54 45.2 °F 23.5 °F 30.04 in SSW 8.0 mph 18.0 mph 42% 0.00 in
19:59 45.1 °F 23.4 °F 30.04 in SSW 10.0 mph 23.0 mph 42% 0.00 in
20:04 45.0 °F 23.3 °F 30.04 in SSW 7.0 mph 23.0 mph 42% 0.00 in
20:09 44.8 °F 23.1 °F 30.04 in SSW 9.0 mph 20.0 mph 42% 0.00 in
20:14 44.7 °F 23.0 °F 30.04 in SSW 10.0 mph 20.0 mph 42% 0.00 in
20:19 44.7 °F 23.0 °F 30.03 in SSW 8.0 mph 20.0 mph 42% 0.00 in
20:24 44.7 °F 23.0 °F 30.03 in SSW 9.0 mph 17.0 mph 42% 0.00 in
20:29 44.9 °F 22.6 °F 30.03 in SSW 10.0 mph 21.0 mph 41% 0.00 in
20:34 44.8 °F 22.5 °F 30.03 in SSW 7.0 mph 22.0 mph 41% 0.00 in
20:39 44.8 °F 22.5 °F 30.03 in SSW 10.0 mph 22.0 mph 41% 0.00 in
20:44 44.9 °F 22.6 °F 30.03 in SSW 10.0 mph 20.0 mph 41% 0.00 in
20:49 44.8 °F 22.5 °F 30.03 in SSW 12.0 mph 20.0 mph 41% 0.00 in
20:54 44.8 °F 22.5 °F 30.03 in SSW 11.0 mph 20.0 mph 41% 0.00 in
20:59 44.8 °F 22.5 °F 30.03 in SSW 10.0 mph 22.0 mph 41% 0.00 in
21:09 44.7 °F 22.4 °F 30.03 in SSW 9.0 mph 27.0 mph 41% 0.00 in
21:14 44.7 °F 22.4 °F 30.03 in SSW 9.0 mph 21.0 mph 41% 0.00 in
21:19 44.7 °F 22.4 °F 30.03 in SSW 11.0 mph 21.0 mph 41% 0.00 in
21:24 44.6 °F 22.9 °F 30.03 in SSW 11.0 mph 19.0 mph 42% 0.00 in
21:29 44.7 °F 22.4 °F 30.03 in SSW 14.0 mph 23.0 mph 41% 0.00 in
21:34 44.8 °F 22.5 °F 30.03 in SSW 11.0 mph 23.0 mph 41% 0.00 in
21:39 44.8 °F 23.1 °F 30.03 in SSW 9.0 mph 21.0 mph 42% 0.00 in
21:44 44.7 °F 23.0 °F 30.03 in SSW 10.0 mph 21.0 mph 42% 0.00 in
21:49 44.5 °F 22.8 °F 30.03 in SSW 7.0 mph 19.0 mph 42% 0.00 in
21:54 44.5 °F 22.8 °F 30.03 in SSW 10.0 mph 17.0 mph 42% 0.00 in
21:59 44.6 °F 22.9 °F 30.03 in SSW 9.0 mph 18.0 mph 42% 0.00 in
22:04 44.7 °F 23.0 °F 30.03 in SSW 15.0 mph 23.0 mph 42% 0.00 in
22:09 44.9 °F 23.2 °F 30.03 in SSW 9.0 mph 23.0 mph 42% 0.00 in
22:14 45.0 °F 23.3 °F 30.03 in SSW 10.0 mph 19.0 mph 42% 0.00 in
22:19 45.0 °F 23.3 °F 30.03 in SSW 8.0 mph 19.0 mph 42% 0.00 in
22:24 44.8 °F 23.7 °F 30.03 in SSW 7.0 mph 18.0 mph 43% 0.00 in
22:29 44.7 °F 23.6 °F 30.03 in SSW 9.0 mph 18.0 mph 43% 0.00 in
22:34 44.7 °F 23.6 °F 30.03 in SSW 7.0 mph 23.0 mph 43% 0.00 in
22:39 44.7 °F 23.6 °F 30.03 in SSW 9.0 mph 23.0 mph 43% 0.00 in
22:44 44.8 °F 23.7 °F 30.03 in SSW 8.0 mph 19.0 mph 43% 0.00 in
22:49 44.8 °F 23.7 °F 30.03 in SSW 10.0 mph 19.0 mph 43% 0.00 in
22:54 44.8 °F 23.7 °F 30.03 in SSW 11.0 mph 22.0 mph 43% 0.00 in
22:59 44.8 °F 23.7 °F 30.03 in SSW 8.0 mph 22.0 mph 43% 0.00 in
23:04 44.8 °F 23.7 °F 30.02 in SSW 6.0 mph 19.0 mph 43% 0.00 in
23:09 44.7 °F 23.6 °F 30.02 in SSW 8.0 mph 19.0 mph 43% 0.00 in
23:14 44.8 °F 23.7 °F 30.01 in SSW 10.0 mph 22.0 mph 43% 0.00 in
23:19 44.9 °F 23.8 °F 30.02 in SSW 10.0 mph 22.0 mph 43% 0.00 in
23:24 44.8 °F 23.7 °F 30.01 in SSW 9.0 mph 20.0 mph 43% 0.00 in
23:29 44.7 °F 24.1 °F 30.01 in SSW 9.0 mph 19.0 mph 44% 0.00 in
23:34 44.7 °F 23.6 °F 30.00 in SSW 9.0 mph 19.0 mph 43% 0.00 in
23:39 44.7 °F 23.6 °F 30.00 in SSW 11.0 mph 19.0 mph 43% 0.00 in
23:44 44.7 °F 24.1 °F 30.00 in SSW 7.0 mph 19.0 mph 44% 0.00 in
23:54 44.5 °F 24.5 °F 30.00 in SSW 10.0 mph 18.0 mph 45% 0.00 in
23:59 44.2 °F 24.7 °F 30.00 in SSW 7.0 mph 18.0 mph 46% 0.00 in
Westford Weather
Compliments of Weather Underground

 
 
Current Radar Loop:

Copyright © WestfordWeather.net 2007-2014. All rights reserved.